| time (UTC) | temp C | wind direction | speed KPH | gust KPH | rain 1hr cm | rain 24hr cm | rain mn cm | humidity % | barometer mb |
| 20260506161238 | 26 | 89 | 3.2 | 4.8 | 0.00 | 0.00 | 0.00 | 82 | 1011.2 |
| 20260506160736 | 26 | 75 | 0.0 | 4.8 | 0.00 | 0.00 | 0.00 | 82 | 1010.9 |
| 20260506160232 | 26 | 81 | 4.8 | 4.8 | 0.00 | 0.00 | 0.00 | 82 | 1010.9 |
| 20260506155731 | 26 | 86 | 1.6 | 4.8 | 0.00 | 0.00 | 0.00 | 83 | 1010.9 |
| 20260506155228 | 26 | 109 | 1.6 | 4.8 | 0.00 | 0.00 | 0.00 | 82 | 1011.1 |
| 20260506153335 | 26 | 140 | 3.2 | 4.8 | 0.00 | 0.00 | 0.00 | 81 | 1011.0 |
| 20260506152831 | 27 | 71 | 3.2 | 4.8 | 0.00 | 0.00 | 0.00 | 80 | 1011.0 |
| 20260506152329 | 27 | 89 | 0.0 | 3.2 | 0.00 | 0.00 | 0.00 | 81 | 1011.0 |
| 20260506151827 | 26 | 79 | 3.2 | 3.2 | 0.00 | 0.00 | 0.00 | 82 | 1010.9 |
| 20260506151323 | 26 | 162 | 3.2 | 6.4 | 0.00 | 0.00 | 0.00 | 84 | 1010.7 |
| 20260506150821 | 26 | 130 | 3.2 | 4.8 | 0.00 | 0.00 | 0.00 | 84 | 1010.7 |
| 20260506150318 | 26 | 137 | 3.2 | 3.2 | 0.00 | 0.00 | 0.00 | 84 | 1010.6 |
| 20260506145814 | 26 | 77 | 3.2 | 4.8 | 0.00 | 0.00 | 0.00 | 85 | 1010.3 |
| 20260506145311 | 26 | 89 | 3.2 | 4.8 | 0.00 | 0.00 | 0.00 | 85 | 1010.7 |
| 20260506144808 | 25 | 82 | 3.2 | 3.2 | 0.00 | 0.00 | 0.00 | 86 | 1010.4 |
| 20260506144305 | 25 | 98 | 3.2 | 4.8 | 0.00 | 0.00 | 0.00 | 86 | 1010.6 |
| 20260506143803 | 25 | 106 | 3.2 | 3.2 | 0.00 | 0.00 | 0.00 | 87 | 1010.3 |
| 20260506143300 | 25 | 99 | 1.6 | 6.4 | 0.00 | 0.00 | 0.00 | 87 | 1010.1 |
| 20260506142758 | 25 | 86 | 1.6 | 4.8 | 0.00 | 0.00 | 0.00 | 88 | 1010.3 |
| 20260506142256 | 25 | 48 | 1.6 | 8.0 | 0.00 | 0.00 | 0.00 | 87 | 1010.3 |
| 20260506141754 | 25 | 106 | 0.0 | 4.8 | 0.00 | 0.00 | 0.00 | 89 | 1010.4 |
| 20260506141252 | 25 | 125 | 3.2 | 4.8 | 0.00 | 0.00 | 0.00 | 89 | 1010.3 |
| 20260506140749 | 24 | 85 | 3.2 | 4.8 | 0.00 | 0.00 | 0.00 | 89 | 1010.4 |
| 20260506140246 | 24 | 106 | 1.6 | 4.8 | 0.00 | 0.00 | 0.00 | 89 | 1010.6 |
| 20260506135743 | 24 | 58 | 1.6 | 3.2 | 0.00 | 0.00 | 0.00 | 89 | 1010.7 |
| 20260506135239 | 24 | 75 | 3.2 | 3.2 | 0.00 | 0.00 | 0.00 | 90 | 1010.6 |
| 20260506134736 | 24 | 89 | 0.0 | 3.2 | 0.00 | 0.00 | 0.00 | 90 | 1010.5 |
| 20260506134233 | 24 | 72 | 3.2 | 3.2 | 0.00 | 0.00 | 0.00 | 89 | 1010.7 |
| 20260506133730 | 24 | 96 | 1.6 | 3.2 | 0.00 | 0.00 | 0.00 | 90 | 1010.6 |
| 20260506133226 | 24 | 68 | 0.0 | 3.2 | 0.00 | 0.00 | 0.00 | 90 | 1010.5 |
| 20260506132723 | 24 | 78 | 3.2 | 3.2 | 0.00 | 0.00 | 0.00 | 91 | 1010.6 |
| 20260506132220 | 24 | 95 | 1.6 | 3.2 | 0.00 | 0.00 | 0.00 | 91 | 1010.6 |
| 20260506131718 | 23 | 113 | 3.2 | 3.2 | 0.00 | 0.00 | 0.00 | 91 | 1010.7 |
| 20260506131214 | 23 | 101 | 1.6 | 3.2 | 0.00 | 0.00 | 0.00 | 91 | 1010.7 |
| 20260506130711 | 23 | 125 | 3.2 | 4.8 | 0.00 | 0.00 | 0.00 | 91 | 1010.5 |
| 20260506130208 | 23 | 118 | 3.2 | 4.8 | 0.00 | 0.00 | 0.00 | 92 | 1010.6 |
| 20260506125706 | 23 | 76 | 3.2 | 3.2 | 0.00 | 0.00 | 0.00 | 92 | 1010.4 |
| 20260506125204 | 23 | 97 | 1.6 | 3.2 | 0.00 | 0.00 | 0.00 | 92 | 1010.3 |
| 20260506124701 | 23 | 78 | 1.6 | 3.2 | 0.00 | 0.00 | 0.00 | 92 | 1010.6 |
| 20260506124159 | 23 | 98 | 3.2 | 3.2 | 0.00 | 0.00 | 0.00 | 92 | 1010.4 |
| 20260506123656 | 23 | 144 | 0.0 | 1.6 | 0.00 | 0.00 | 0.00 | 93 | 1010.3 |
| 20260506123155 | 23 | 89 | 3.2 | 3.2 | 0.00 | 0.00 | 0.00 | 93 | 1010.3 |
| 20260506122651 | 23 | 51 | 3.2 | 3.2 | 0.00 | 0.00 | 0.00 | 93 | 1010.4 |
| 20260506122149 | 23 | 78 | 1.6 | 3.2 | 0.00 | 0.00 | 0.00 | 93 | 1010.3 |
| 20260506121647 | 23 | 104 | 0.0 | 3.2 | 0.00 | 0.00 | 0.00 | 94 | 1010.4 |
| 20260506121143 | 23 | 96 | 0.0 | 1.6 | 0.00 | 0.00 | 0.00 | 94 | 1010.4 |
| 20260506120641 | 23 | 96 | 0.0 | 1.6 | 0.00 | 0.00 | 0.00 | 94 | 1010.2 |
| 20260506120138 | 23 | 89 | 0.0 | 1.6 | 0.00 | 0.00 | 0.00 | 94 | 1010.2 |
| 20260506115636 | 23 | 77 | 0.0 | 1.6 | 0.00 | 0.00 | 0.00 | 94 | 1009.9 |
| 20260506115134 | 23 | 89 | 1.6 | 3.2 | 0.00 | 0.00 | 0.00 | 94 | 1010.1 |
| 20260506114631 | 23 | 79 | 0.0 | 1.6 | 0.00 | 0.00 | 0.00 | 94 | 1010.1 |
| 20260506114129 | 23 | 60 | 0.0 | 1.6 | 0.00 | 0.00 | 0.00 | 93 | 1010.0 |
| 20260506113627 | 23 | 84 | 1.6 | 1.6 | 0.00 | 0.00 | 0.00 | 93 | 1009.8 |
| 20260506113124 | 23 | 93 | 0.0 | 1.6 | 0.00 | 0.00 | 0.00 | 93 | 1009.6 |
| 20260506112620 | 23 | 87 | 0.0 | 1.6 | 0.00 | 0.00 | 0.00 | 93 | 1009.7 |
| 20260506112118 | 23 | 37 | 0.0 | 1.6 | 0.00 | 0.00 | 0.00 | 93 | 1009.7 |
| 20260506111616 | 23 | 135 | 0.0 | 1.6 | 0.00 | 0.00 | 0.00 | 93 | 1009.6 |
| 20260506111113 | 23 | 117 | 0.0 | 0.0 | 0.00 | 0.00 | 0.00 | 93 | 1009.2 |
| 20260506110610 | 23 | 107 | 1.6 | 3.2 | 0.00 | 0.00 | 0.00 | 93 | 1009.2 |
| 20260506110108 | 23 | 108 | 3.2 | 3.2 | 0.00 | 0.00 | 0.00 | 93 | 1009.2 |
| 20260506105604 | 23 | 118 | 1.6 | 6.4 | 0.00 | 0.00 | 0.00 | 93 | 1009.1 |
| 20260506105101 | 23 | 117 | 0.0 | 3.2 | 0.00 | 0.00 | 0.00 | 93 | 1009.1 |
| 20260506104559 | 23 | 87 | 1.6 | 3.2 | 0.00 | 0.00 | 0.00 | 93 | 1008.9 |
| 20260506104056 | 23 | 98 | 1.6 | 3.2 | 0.00 | 0.00 | 0.00 | 92 | 1009.1 |
| 20260506103554 | 23 | 103 | 1.6 | 3.2 | 0.00 | 0.00 | 0.00 | 92 | 1009.2 |
| 20260506103050 | 23 | 83 | 3.2 | 3.2 | 0.00 | 0.00 | 0.00 | 92 | 1009.2 |
| 20260506102549 | 23 | 98 | 0.0 | 4.8 | 0.00 | 0.00 | 0.00 | 91 | 1008.9 |
| 20260506102046 | 23 | 121 | 4.8 | 4.8 | 0.00 | 0.00 | 0.00 | 91 | 1009.0 |
| 20260506101542 | 23 | 123 | 3.2 | 3.2 | 0.00 | 0.00 | 0.00 | 91 | 1009.3 |
| 20260506101039 | 23 | 72 | 0.0 | 6.4 | 0.00 | 0.00 | 0.00 | 91 | 1009.1 |
| 20260506100538 | 23 | 58 | 1.6 | 4.8 | 0.00 | 0.00 | 0.00 | 90 | 1009.2 |
| 20260506100035 | 23 | 98 | 1.6 | 3.2 | 0.00 | 0.00 | 0.00 | 90 | 1009.0 |
| 20260506095534 | 23 | 85 | 1.6 | 1.6 | 0.00 | 0.00 | 0.00 | 89 | 1008.9 |
| 20260506095030 | 23 | 74 | 3.2 | 4.8 | 0.00 | 0.00 | 0.00 | 89 | 1008.8 |
| 20260506094528 | 23 | 96 | 3.2 | 4.8 | 0.00 | 0.00 | 0.00 | 89 | 1009.2 |
| 20260506094025 | 23 | 121 | 0.0 | 3.2 | 0.00 | 0.00 | 0.00 | 89 | 1008.7 |
| 20260506093524 | 23 | 75 | 3.2 | 4.8 | 0.00 | 0.00 | 0.00 | 89 | 1008.6 |
| 20260506093021 | 23 | 80 | 1.6 | 3.2 | 0.00 | 0.00 | 0.00 | 89 | 1008.7 |
| 20260506092519 | 23 | 131 | 1.6 | 4.8 | 0.00 | 0.00 | 0.00 | 89 | 1008.6 |
| 20260506092015 | 23 | 200 | 3.2 | 6.4 | 0.00 | 0.00 | 0.00 | 89 | 1008.7 |
| 20260506091514 | 23 | 62 | 0.0 | 8.0 | 0.00 | 0.00 | 0.00 | 89 | 1008.8 |
| 20260506091010 | 23 | 66 | 3.2 | 3.2 | 0.00 | 0.00 | 0.00 | 89 | 1008.6 |
| 20260506090508 | 23 | 110 | 8.0 | 8.0 | 0.00 | 0.00 | 0.00 | 89 | 1008.6 |
| 20260506090004 | 23 | 58 | 1.6 | 6.4 | 0.00 | 0.00 | 0.00 | 89 | 1008.9 |
| 20260506085501 | 23 | 129 | 4.8 | 6.4 | 0.00 | 0.00 | 0.00 | 89 | 1008.5 |
| 20260506084957 | 23 | 110 | 1.6 | 3.2 | 0.00 | 0.00 | 0.00 | 89 | 1008.6 |
| 20260506084454 | 23 | 121 | 3.2 | 4.8 | 0.00 | 0.00 | 0.00 | 88 | 1008.8 |
| 20260506083950 | 24 | 136 | 3.2 | 9.7 | 0.00 | 0.00 | 0.00 | 88 | 1008.6 |
| 20260506083448 | 24 | 131 | 1.6 | 3.2 | 0.00 | 0.00 | 0.00 | 88 | 1008.6 |
| 20260506082945 | 24 | 86 | 3.2 | 3.2 | 0.00 | 0.00 | 0.00 | 88 | 1008.9 |
| 20260506082442 | 24 | 218 | 3.2 | 6.4 | 0.00 | 0.00 | 0.00 | 88 | 1008.8 |
| 20260506081938 | 24 | 83 | 3.2 | 3.2 | 0.00 | 0.00 | 0.00 | 88 | 1008.9 |
| 20260506081436 | 24 | 127 | 0.0 | 6.4 | 0.00 | 0.00 | 0.00 | 88 | 1009.0 |
| 20260506080933 | 24 | 103 | 3.2 | 4.8 | 0.00 | 0.00 | 0.00 | 88 | 1009.2 |
| 20260506080430 | 24 | 97 | 1.6 | 4.8 | 0.00 | 0.00 | 0.00 | 88 | 1009.3 |
| 20260506073414 | 24 | 95 | 1.6 | 4.8 | 0.00 | 0.00 | 0.00 | 87 | 1009.4 |
| 20260506072911 | 24 | 116 | 0.0 | 4.8 | 0.00 | 0.00 | 0.00 | 87 | 1009.5 |
| 20260506072408 | 24 | 91 | 1.6 | 3.2 | 0.00 | 0.00 | 0.00 | 87 | 1009.7 |
| 20260506071906 | 24 | 75 | 3.2 | 4.8 | 0.00 | 0.00 | 0.00 | 87 | 1009.5 |
| 20260506071404 | 24 | 78 | 1.6 | 9.7 | 0.00 | 0.00 | 0.00 | 87 | 1009.5 |
| 20260506070900 | 24 | 114 | 0.0 | 6.4 | 0.00 | 0.00 | 0.00 | 87 | 1009.6 |
| 20260506070357 | 24 | 97 | 3.2 | 6.4 | 0.00 | 0.00 | 0.00 | 87 | 1009.8 |
| 20260506062334 | 24 | 184 | 3.2 | 3.2 | 0.00 | 0.00 | 0.00 | 87 | 1009.8 |
| 20260506061830 | 24 | 64 | 3.2 | 4.8 | 0.00 | 0.00 | 0.00 | 87 | 1009.7 |
| 20260506061327 | 24 | 111 | 3.2 | 6.4 | 0.00 | 0.00 | 0.00 | 87 | 1009.7 |
| 20260506060825 | 24 | 172 | 4.8 | 9.7 | 0.00 | 0.00 | 0.00 | 87 | 1009.7 |
| 20260506060323 | 24 | 99 | 4.8 | 4.8 | 0.00 | 0.00 | 0.00 | 87 | 1009.8 |
| 20260506051255 | 24 | 88 | 0.0 | 4.8 | 0.00 | 0.00 | 0.00 | 86 | 1009.9 |
| 20260506050753 | 24 | 304 | 3.2 | 6.4 | 0.00 | 0.00 | 0.00 | 86 | 1009.8 |
| 20260506050250 | 24 | 86 | 1.6 | 4.8 | 0.00 | 0.00 | 0.00 | 86 | 1009.8 |
| 20260506044740 | 24 | 188 | 3.2 | 8.0 | 0.00 | 0.00 | 0.00 | 85 | 1009.8 |
| 20260506044238 | 25 | 186 | 1.6 | 8.0 | 0.00 | 0.00 | 0.00 | 85 | 1009.7 |
| 20260506043735 | 25 | 106 | 3.2 | 6.4 | 0.00 | 0.00 | 0.00 | 84 | 1009.8 |
| 20260506043232 | 25 | 81 | 3.2 | 6.4 | 0.00 | 0.00 | 0.00 | 84 | 1010.1 |
| 20260506042731 | 25 | 87 | 3.2 | 4.8 | 0.00 | 0.00 | 0.00 | 84 | 1009.8 |
| 20260506042229 | 25 | 180 | 1.6 | 4.8 | 0.00 | 0.00 | 0.00 | 84 | 1009.8 |
| 20260506041727 | 25 | 140 | 3.2 | 8.0 | 0.00 | 0.00 | 0.00 | 84 | 1009.8 |
| 20260506041224 | 25 | 95 | 3.2 | 6.4 | 0.00 | 0.00 | 0.00 | 84 | 1009.7 |
| 20260506040721 | 25 | 208 | 6.4 | 6.4 | 0.00 | 0.00 | 0.00 | 84 | 1009.6 |
| 20260506040218 | 25 | 100 | 3.2 | 6.4 | 0.00 | 0.00 | 0.00 | 83 | 1009.7 |
| 20260506035715 | 25 | 172 | 3.2 | 6.4 | 0.00 | 0.00 | 0.00 | 83 | 1009.5 |
| 20260506035212 | 25 | 121 | 3.2 | 6.4 | 0.00 | 0.00 | 0.00 | 83 | 1009.6 |
| 20260506034709 | 25 | 178 | 1.6 | 4.8 | 0.00 | 0.00 | 0.00 | 83 | 1009.6 |
| 20260506034206 | 25 | 100 | 0.0 | 8.0 | 0.00 | 0.00 | 0.00 | 83 | 1009.5 |
| 20260506033703 | 25 | 78 | 4.8 | 6.4 | 0.00 | 0.00 | 0.00 | 82 | 1009.4 |
| 20260506033200 | 25 | 88 | 3.2 | 9.7 | 0.00 | 0.00 | 0.00 | 82 | 1009.4 |
| 20260506032657 | 25 | 197 | 4.8 | 6.4 | 0.00 | 0.00 | 0.00 | 82 | 1009.5 |
| 20260506032154 | 25 | 139 | 3.2 | 8.0 | 0.00 | 0.00 | 0.00 | 82 | 1009.4 |
| 20260506031651 | 25 | 85 | 3.2 | 3.2 | 0.00 | 0.00 | 0.00 | 82 | 1009.3 |
| 20260506031148 | 25 | 116 | 6.4 | 9.7 | 0.00 | 0.00 | 0.00 | 82 | 1009.2 |
| 20260506030647 | 25 | 123 | 4.8 | 8.0 | 0.00 | 0.00 | 0.00 | 81 | 1009.3 |
| 20260506030143 | 25 | 111 | 4.8 | 6.4 | 0.00 | 0.00 | 0.00 | 81 | 1009.3 |
| 20260506025640 | 25 | 166 | 1.6 | 9.7 | 0.00 | 0.00 | 0.00 | 81 | 1009.1 |
| 20260506025136 | 25 | 137 | 6.4 | 8.0 | 0.00 | 0.00 | 0.00 | 81 | 1008.9 |
| 20260506024634 | 25 | 149 | 0.0 | 6.4 | 0.00 | 0.00 | 0.00 | 81 | 1008.8 |
| 20260506024130 | 25 | 180 | 3.2 | 12.9 | 0.00 | 0.00 | 0.00 | 81 | 1008.9 |
| 20260506023626 | 25 | 125 | 4.8 | 6.4 | 0.00 | 0.00 | 0.00 | 80 | 1008.6 |
| 20260506023124 | 25 | 124 | 6.4 | 6.4 | 0.00 | 0.00 | 0.00 | 80 | 1008.4 |
| 20260506022621 | 25 | 153 | 3.2 | 6.4 | 0.00 | 0.00 | 0.00 | 80 | 1008.6 |
| 20260506022118 | 25 | 194 | 0.0 | 9.7 | 0.00 | 0.00 | 0.00 | 80 | 1008.5 |
| 20260506021616 | 25 | 116 | 4.8 | 6.4 | 0.00 | 0.00 | 0.00 | 80 | 1008.4 |
| 20260506021113 | 25 | 83 | 1.6 | 6.4 | 0.00 | 0.00 | 0.00 | 79 | 1008.6 |
| 20260506020610 | 25 | 205 | 6.4 | 6.4 | 0.00 | 0.00 | 0.00 | 79 | 1008.1 |
| 20260506020108 | 25 | 142 | 3.2 | 8.0 | 0.00 | 0.00 | 0.00 | 79 | 1008.0 |
| 20260506015605 | 25 | 137 | 1.6 | 8.0 | 0.00 | 0.00 | 0.00 | 78 | 1008.1 |
| 20260506015102 | 25 | 85 | 3.2 | 9.7 | 0.00 | 0.00 | 0.00 | 78 | 1008.0 |
| 20260506014559 | 26 | 58 | 0.0 | 6.4 | 0.00 | 0.00 | 0.00 | 78 | 1007.9 |
| 20260506014054 | 26 | 147 | 11.3 | 12.9 | 0.00 | 0.00 | 0.00 | 77 | 1007.9 |
| 20260506013553 | 26 | 209 | 3.2 | 3.2 | 0.00 | 0.00 | 0.00 | 77 | 1007.8 |
| 20260506013049 | 26 | 145 | 6.4 | 6.4 | 0.00 | 0.00 | 0.00 | 77 | 1007.8 |
| 20260506012545 | 26 | 144 | 4.8 | 4.8 | 0.00 | 0.00 | 0.00 | 76 | 1007.8 |
| 20260506012042 | 26 | 39 | 1.6 | 3.2 | 0.00 | 0.00 | 0.00 | 75 | 1007.7 |
| 20260506011541 | 26 | 111 | 3.2 | 9.7 | 0.00 | 0.00 | 0.00 | 75 | 1007.4 |
| 20260506011036 | 26 | 149 | 1.6 | 6.4 | 0.00 | 0.00 | 0.00 | 75 | 1007.4 |
| 20260506010536 | 26 | 126 | 3.2 | 6.4 | 0.00 | 0.00 | 0.00 | 74 | 1007.3 |
| 20260506010032 | 26 | 100 | 3.2 | 8.0 | 0.00 | 0.00 | 0.00 | 74 | 1007.2 |
| 20260506005529 | 26 | 138 | 11.3 | 14.5 | 0.00 | 0.00 | 0.00 | 74 | 1007.3 |
| 20260506005025 | 26 | 136 | 4.8 | 8.0 | 0.00 | 0.00 | 0.00 | 74 | 1007.1 |
| 20260506004523 | 26 | 97 | 4.8 | 6.4 | 0.00 | 0.00 | 0.00 | 74 | 1007.4 |
| 20260506004019 | 26 | 117 | 6.4 | 6.4 | 0.00 | 0.00 | 0.00 | 74 | 1007.2 |
| 20260506003516 | 26 | 108 | 3.2 | 6.4 | 0.00 | 0.00 | 0.00 | 74 | 1007.1 |
| 20260506003012 | 26 | 50 | 0.0 | 3.2 | 0.00 | 0.00 | 0.00 | 73 | 1007.2 |
| 20260506002508 | 26 | 158 | 0.0 | 6.4 | 0.00 | 0.00 | 0.00 | 73 | 1007.2 |
| 20260506002003 | 26 | 113 | 0.0 | 4.8 | 0.00 | 0.00 | 0.00 | 73 | 1007.1 |
| 20260506001500 | 27 | 126 | 6.4 | 6.4 | 0.00 | 0.00 | 0.00 | 73 | 1007.2 |
| 20260506000958 | 27 | 19 | 0.0 | 6.4 | 0.00 | 0.00 | 0.00 | 73 | 1007.1 |
| 20260506000455 | 27 | 94 | 1.6 | 11.3 | 0.00 | 0.00 | 0.00 | 73 | 1007.0 |
| 20260505235952 | 27 | 120 | 3.2 | 6.4 | 0.00 | 0.00 | 0.00 | 72 | 1007.2 |
| 20260505235450 | 27 | 152 | 6.4 | 6.4 | 0.00 | 0.00 | 0.00 | 72 | 1007.2 |
| 20260505234947 | 27 | 175 | 4.8 | 8.0 | 0.00 | 0.00 | 0.00 | 72 | 1006.9 |
| 20260505234444 | 27 | 146 | 3.2 | 9.7 | 0.00 | 0.00 | 0.00 | 72 | 1007.0 |
| 20260505233940 | 27 | 193 | 3.2 | 11.3 | 0.00 | 0.00 | 0.00 | 72 | 1007.0 |
| 20260505233438 | 27 | 71 | 3.2 | 9.7 | 0.00 | 0.00 | 0.00 | 72 | 1006.9 |
| 20260505232936 | 27 | 37 | 0.0 | 4.8 | 0.00 | 0.00 | 0.00 | 72 | 1007.0 |
| 20260505232434 | 27 | 118 | 0.0 | 11.3 | 0.00 | 0.00 | 0.00 | 71 | 1007.1 |
| 20260505231930 | 27 | 180 | 6.4 | 9.7 | 0.00 | 0.00 | 0.00 | 71 | 1007.1 |
| 20260505231428 | 27 | 143 | 3.2 | 4.8 | 0.00 | 0.00 | 0.00 | 71 | 1007.0 |
| 20260505230926 | 27 | 119 | 3.2 | 9.7 | 0.00 | 0.00 | 0.00 | 70 | 1007.1 |
| 20260505230423 | 28 | 311 | 0.0 | 8.0 | 0.00 | 0.00 | 0.00 | 70 | 1007.1 |
| 20260505225919 | 28 | 91 | 1.6 | 3.2 | 0.00 | 0.00 | 0.00 | 70 | 1007.0 |
| 20260505225417 | 28 | 220 | 4.8 | 8.0 | 0.00 | 0.00 | 0.00 | 69 | 1007.0 |
| 20260505224912 | 28 | 92 | 3.2 | 11.3 | 0.00 | 0.00 | 0.00 | 69 | 1007.1 |
| 20260505224410 | 28 | 25 | 0.0 | 6.4 | 0.00 | 0.00 | 0.00 | 68 | 1006.8 |
| 20260505223906 | 28 | 164 | 3.2 | 6.4 | 0.00 | 0.00 | 0.00 | 68 | 1006.9 |
| 20260505223403 | 28 | 163 | 3.2 | 9.7 | 0.00 | 0.00 | 0.00 | 68 | 1007.0 |
| 20260505222859 | 28 | 103 | 3.2 | 6.4 | 0.00 | 0.00 | 0.00 | 68 | 1007.0 |
| 20260505222356 | 28 | 152 | 3.2 | 11.3 | 0.00 | 0.00 | 0.00 | 67 | 1006.9 |
| 20260505221852 | 29 | 240 | 1.6 | 3.2 | 0.00 | 0.00 | 0.00 | 67 | 1006.9 |
| 20260505221349 | 29 | 13 | 1.6 | 8.0 | 0.00 | 0.00 | 0.00 | 68 | 1006.9 |
| 20260505220846 | 28 | 193 | 3.2 | 8.0 | 0.00 | 0.00 | 0.00 | 68 | 1006.8 |
| 20260505220343 | 28 | 205 | 1.6 | 11.3 | 0.00 | 0.00 | 0.00 | 69 | 1007.2 |
| 20260505215841 | 28 | 196 | 6.4 | 8.0 | 0.00 | 0.00 | 0.00 | 69 | 1007.3 |
| 20260505215339 | 28 | 155 | 1.6 | 3.2 | 0.00 | 0.00 | 0.00 | 70 | 1007.3 |
| 20260505214837 | 28 | 247 | 3.2 | 6.4 | 0.00 | 0.00 | 0.00 | 68 | 1007.4 |
| 20260505214334 | 28 | 178 | 1.6 | 6.4 | 0.00 | 0.00 | 0.00 | 68 | 1007.5 |
| 20260505213831 | 28 | 63 | 0.0 | 8.0 | 0.00 | 0.00 | 0.00 | 68 | 1007.9 |
| 20260505213329 | 28 | 281 | 0.0 | 9.7 | 0.00 | 0.00 | 0.00 | 68 | 1007.5 |
| 20260505212824 | 28 | 127 | 0.0 | 4.8 | 0.00 | 0.00 | 0.00 | 68 | 1007.5 |
| 20260505212322 | 28 | 141 | 3.2 | 6.4 | 0.00 | 0.00 | 0.00 | 66 | 1007.6 |
| 20260505211818 | 28 | 122 | 1.6 | 6.4 | 0.00 | 0.00 | 0.00 | 66 | 1007.7 |
| 20260505211316 | 28 | 33 | 3.2 | 4.8 | 0.00 | 0.00 | 0.00 | 68 | 1007.8 |
| 20260505210812 | 28 | 33 | 0.0 | 6.4 | 0.00 | 0.00 | 0.00 | 68 | 1007.8 |
| 20260505210309 | 28 | 83 | 3.2 | 8.0 | 0.00 | 0.00 | 0.00 | 68 | 1007.7 |
| 20260505205806 | 28 | 215 | 3.2 | 9.7 | 0.00 | 0.00 | 0.00 | 66 | 1007.9 |
| 20260505205305 | 29 | 220 | 4.8 | 9.7 | 0.00 | 0.00 | 0.00 | 65 | 1007.9 |
| 20260505204800 | 29 | 250 | 0.0 | 8.0 | 0.00 | 0.00 | 0.00 | 66 | 1007.9 |
| 20260505204259 | 28 | 206 | 3.2 | 12.9 | 0.00 | 0.00 | 0.00 | 67 | 1008.0 |
| 20260505203755 | 29 | 211 | 8.0 | 9.7 | 0.00 | 0.00 | 0.00 | 66 | 1008.2 |
| 20260505203252 | 29 | 275 | 1.6 | 8.0 | 0.00 | 0.00 | 0.00 | 66 | 1008.2 |
| 20260505202749 | 28 | 259 | 0.0 | 8.0 | 0.00 | 0.00 | 0.00 | 68 | 1008.6 |
| 20260505202244 | 28 | 303 | 6.4 | 6.4 | 0.00 | 0.00 | 0.00 | 68 | 1008.5 |
| 20260505201741 | 29 | 182 | 0.0 | 9.7 | 0.00 | 0.00 | 0.00 | 65 | 1008.5 |
| 20260505201239 | 29 | 228 | 3.2 | 6.4 | 0.00 | 0.00 | 0.00 | 66 | 1008.5 |
| 20260505200737 | 28 | 253 | 3.2 | 9.7 | 0.00 | 0.00 | 0.00 | 69 | 1008.5 |
| 20260505200235 | 28 | 194 | 8.0 | 8.0 | 0.00 | 0.00 | 0.00 | 68 | 1008.5 |
| 20260505195729 | 28 | 188 | 12.9 | 17.7 | 0.00 | 0.00 | 0.00 | 68 | 1008.9 |
| 20260505195227 | 28 | 301 | 0.0 | 6.4 | 0.00 | 0.00 | 0.00 | 69 | 1008.9 |
| 20260505194724 | 28 | 189 | 4.8 | 6.4 | 0.00 | 0.00 | 0.00 | 67 | 1008.9 |
| 20260505194220 | 28 | 146 | 1.6 | 9.7 | 0.00 | 0.00 | 0.00 | 69 | 1009.0 |
| 20260505193716 | 28 | 118 | 4.8 | 12.9 | 0.00 | 0.00 | 0.00 | 69 | 1008.9 |
| 20260505193214 | 28 | 194 | 6.4 | 9.7 | 0.00 | 0.00 | 0.00 | 70 | 1009.1 |
| 20260505192712 | 28 | 152 | 4.8 | 6.4 | 0.00 | 0.00 | 0.00 | 72 | 1009.1 |
| 20260505192209 | 27 | 75 | 1.6 | 8.0 | 0.00 | 0.00 | 0.00 | 73 | 1009.1 |
| 20260505191708 | 27 | 102 | 4.8 | 9.7 | 0.00 | 0.00 | 0.00 | 73 | 1009.4 |
| 20260505191205 | 27 | 210 | 4.8 | 6.4 | 0.00 | 0.00 | 0.00 | 72 | 1009.4 |
| 20260505190701 | 27 | 179 | 3.2 | 9.7 | 0.00 | 0.00 | 0.00 | 72 | 1009.3 |
| 20260505190201 | 27 | 178 | 3.2 | 8.0 | 0.00 | 0.00 | 0.00 | 71 | 1009.0 |
| 20260505185658 | 28 | 211 | 3.2 | 9.7 | 0.00 | 0.00 | 0.00 | 69 | 1009.3 |
| 20260505185155 | 28 | 169 | 0.0 | 4.8 | 0.00 | 0.00 | 0.00 | 71 | 1009.2 |
| 20260505184651 | 27 | 108 | 1.6 | 4.8 | 0.00 | 0.00 | 0.00 | 73 | 1009.4 |
| 20260505184148 | 27 | 31 | 1.6 | 9.7 | 0.00 | 0.00 | 0.00 | 71 | 1009.4 |
| 20260505183645 | 27 | 146 | 1.6 | 8.0 | 0.00 | 0.00 | 0.00 | 71 | 1009.5 |
| 20260505183143 | 27 | 323 | 3.2 | 9.7 | 0.00 | 0.00 | 0.00 | 72 | 1009.6 |
| 20260505182638 | 27 | 227 | 3.2 | 4.8 | 0.00 | 0.00 | 0.00 | 73 | 1009.9 |
| 20260505182136 | 27 | 241 | 0.0 | 9.7 | 0.00 | 0.00 | 0.00 | 72 | 1009.6 |
| 20260505181632 | 27 | 142 | 3.2 | 8.0 | 0.00 | 0.00 | 0.00 | 72 | 1009.7 |
| 20260505181130 | 27 | 129 | 0.0 | 6.4 | 0.00 | 0.00 | 0.00 | 73 | 1009.8 |
| 20260505180626 | 27 | 167 | 4.8 | 12.9 | 0.00 | 0.00 | 0.00 | 73 | 1009.7 |
| 20260505180123 | 26 | 245 | 1.6 | 9.7 | 0.00 | 0.00 | 0.00 | 74 | 1009.5 |
| 20260505175619 | 26 | 85 | 4.8 | 6.4 | 0.00 | 0.00 | 0.00 | 75 | 1009.5 |
| 20260505175116 | 26 | 151 | 3.2 | 12.9 | 0.00 | 0.00 | 0.00 | 74 | 1009.7 |
| 20260505174612 | 26 | 76 | 3.2 | 6.4 | 0.00 | 0.00 | 0.00 | 75 | 1009.7 |
| 20260505174108 | 26 | 197 | 4.8 | 8.0 | 0.00 | 0.00 | 0.00 | 74 | 1009.8 |
| 20260505173605 | 26 | 89 | 3.2 | 8.0 | 0.00 | 0.00 | 0.00 | 76 | 1009.8 |
| 20260505173102 | 26 | 32 | 0.0 | 8.0 | 0.00 | 0.00 | 0.00 | 77 | 1010.2 |
| 20260505172600 | 26 | 191 | 1.6 | 8.0 | 0.00 | 0.00 | 0.00 | 76 | 1010.1 |
| 20260505172056 | 26 | 114 | 3.2 | 9.7 | 0.00 | 0.00 | 0.00 | 75 | 1010.0 |
| 20260505171551 | 26 | 199 | 0.0 | 4.8 | 0.00 | 0.00 | 0.00 | 76 | 1010.1 |
| 20260505171048 | 26 | 136 | 3.2 | 6.4 | 0.00 | 0.00 | 0.00 | 77 | 1010.0 |
| 20260505170545 | 26 | 256 | 0.0 | 6.4 | 0.00 | 0.00 | 0.00 | 76 | 1010.1 |
| 20260505170041 | 26 | 186 | 3.2 | 8.0 | 0.00 | 0.00 | 0.00 | 78 | 1010.0 |
| 20260505165537 | 25 | 153 | 3.2 | 6.4 | 0.00 | 0.00 | 0.00 | 78 | 1010.2 |
| 20260505165032 | 25 | 125 | 4.8 | 8.0 | 0.00 | 0.00 | 0.00 | 79 | 1010.1 |
| 20260505164529 | 25 | 187 | 4.8 | 6.4 | 0.00 | 0.00 | 0.00 | 79 | 1010.1 |
| 20260505164026 | 25 | 201 | 8.0 | 9.7 | 0.00 | 0.00 | 0.00 | 78 | 1010.2 |
| 20260505163525 | 25 | 258 | 3.2 | 8.0 | 0.00 | 0.00 | 0.00 | 77 | 1010.4 |
| 20260505163021 | 25 | 91 | 1.6 | 6.4 | 0.00 | 0.00 | 0.00 | 78 | 1010.3 |
| 20260505162515 | 26 | 342 | 0.0 | 4.8 | 0.00 | 0.00 | 0.00 | 77 | 1010.1 |
| 20260505162012 | 25 | 169 | 0.0 | 6.4 | 0.00 | 0.00 | 0.00 | 78 | 1010.1 |
| 20260505161508 | 25 | 209 | 4.8 | 8.0 | 0.00 | 0.00 | 0.00 | 78 | 1010.0 |